EW8380 Weather Reports


Display with metric or nautical units.
time (UTC)temp
F
wind
direction
speed
MPH
gust
MPH
rain 1hr
in
rain 24hr
in
rain mn
in
humidity
%
barometer
mb
20260507165856 53 25 3.0 8.0 0.00 0.00 0.00 73 1020.7
20260507165356 53 1 2.0 8.0 0.00 0.00 0.00 74 1020.7
20260507164855 53 26 2.0 6.0 0.00 0.00 0.00 75 1020.7
20260507164359 53 10 2.0 6.0 0.00 0.00 0.00 73 1020.8
20260507164355 53 327 2.0 6.0 0.00 0.00 0.00 73 1020.8
20260507164016 52 314 3.0 7.0 0.00 0.00 0.00 75 1020.8
20260507163353 52 25 2.0 6.0 0.00 0.00 0.00 74 1020.8
20260507162850 52 37 3.0 7.0 0.00 0.00 0.00 75 1020.8
20260507161851 51 19 2.0 6.0 0.00 0.00 0.00 75 1020.9
20260507161357 51 310 2.0 6.0 0.00 0.00 0.00 76 1020.8
20260507161351 51 325 2.0 6.0 0.00 0.00 0.00 76 1020.8
20260507160850 51 46 1.0 6.0 0.00 0.00 0.00 76 1020.7
20260507155855 51 58 2.0 6.0 0.00 0.00 0.00 76 1020.8
20260507155850 51 13 2.0 6.0 0.00 0.00 0.00 76 1020.8
20260507154851 51 323 2.0 8.0 0.00 0.00 0.00 76 1020.9
20260507154349 51 39 2.0 8.0 0.00 0.00 0.00 75 1020.8
20260507153849 51 325 2.0 6.0 0.00 0.00 0.00 77 1020.8
20260507153347 50 311 1.0 6.0 0.00 0.00 0.00 77 1020.9
20260507152847 50 358 2.0 6.0 0.00 0.00 0.00 77 1020.9
20260507152349 50 346 2.0 6.0 0.00 0.00 0.00 77 1020.9
20260507151848 50 2 1.0 4.0 0.00 0.00 0.00 77 1020.9
20260507151350 50 323 1.0 5.0 0.00 0.00 0.00 78 1020.9
20260507150849 50 340 2.0 7.0 0.00 0.00 0.00 78 1020.8
20260507150348 50 10 2.0 7.0 0.00 0.00 0.00 78 1020.9
20260507145847 50 39 2.0 7.0 0.00 0.00 0.00 77 1020.8
20260507145349 50 332 2.0 7.0 0.00 0.00 0.00 77 1020.8
20260507144847 49 34 2.0 5.0 0.00 0.00 0.00 77 1020.8
20260507144352 49 22 2.0 8.0 0.00 0.00 0.00 78 1020.8
20260507144346 49 352 2.0 5.0 0.00 0.00 0.00 77 1020.8
20260507143845 49 24 2.0 8.0 0.00 0.00 0.00 78 1020.7
20260507142844 49 332 2.0 8.0 0.00 0.00 0.00 79 1020.8
20260507142343 49 320 2.0 8.0 0.00 0.00 0.00 78 1020.7
20260507141843 49 53 2.0 6.0 0.00 0.00 0.00 79 1020.7
20260507141347 49 34 1.0 3.0 0.00 0.00 0.00 79 1020.7
20260507141343 49 328 1.0 6.0 0.00 0.00 0.00 79 1020.7
20260507140342 49 324 1.0 4.0 0.00 0.00 0.00 79 1020.6
20260507135843 49 354 1.0 4.0 0.00 0.00 0.00 79 1020.6
20260507135342 49 25 1.0 6.0 0.00 0.00 0.00 79 1020.6
20260507134841 49 36 1.0 6.0 0.00 0.00 0.00 79 1020.5
20260507134342 49 341 1.0 5.0 0.00 0.00 0.00 80 1020.5
20260507133845 49 9 1.0 4.0 0.00 0.00 0.00 80 1020.4
20260507133841 49 11 1.0 5.0 0.00 0.00 0.00 80 1020.5
20260507132838 49 37 1.0 4.0 0.00 0.00 0.00 80 1020.4
20260507132336 49 16 1.0 4.0 0.00 0.00 0.00 80 1020.4
20260507131839 49 20 2.0 5.0 0.00 0.00 0.00 80 1020.4
20260507131835 49 8 1.0 4.0 0.00 0.00 0.00 79 1020.4
20260507131457 49 17 1.0 3.0 0.00 0.00 0.00 80 1020.4
20260507131333 49 35 2.0 5.0 0.00 0.00 0.00 80 1020.4
20260507130334 49 22 1.0 5.0 0.00 0.00 0.00 80 1020.4
20260507125835 49 48 1.0 3.0 0.00 0.00 0.00 79 1020.5
20260507124835 49 327 1.0 4.0 0.00 0.00 0.00 79 1020.5
20260507124333 49 22 1.0 4.0 0.00 0.00 0.00 80 1020.4
20260507123834 49 11 1.0 3.0 0.00 0.00 0.00 80 1020.5
20260507123335 49 356 0.0 3.0 0.00 0.00 0.00 80 1020.4
20260507122834 50 347 1.0 5.0 0.00 0.00 0.00 80 1020.5
20260507122333 50 332 1.0 5.0 0.00 0.00 0.00 79 1020.5
20260507121832 50 341 1.0 3.0 0.00 0.00 0.00 79 1020.5
20260507121338 50 337 0.0 3.0 0.00 0.00 0.00 79 1020.6
20260507121333 50 323 0.0 3.0 0.00 0.00 0.00 79 1020.5
20260507120332 50 328 0.0 2.0 0.00 0.00 0.00 79 1020.6
20260507115832 50 349 1.0 3.0 0.00 0.00 0.00 79 1020.7
20260507115333 50 352 1.0 3.0 0.00 0.00 0.00 79 1020.7
20260507114832 50 339 0.0 2.0 0.00 0.00 0.00 80 1020.7
20260507114333 50 359 1.0 4.0 0.00 0.00 0.00 80 1020.7
20260507113833 50 16 1.0 5.0 0.00 0.00 0.00 80 1020.7
20260507113333 50 1 1.0 5.0 0.00 0.00 0.00 79 1020.7
20260507112833 50 342 1.0 4.0 0.00 0.00 0.00 80 1020.7
20260507112332 50 31 1.0 4.0 0.00 0.00 0.00 80 1020.7
20260507111835 50 1 1.0 4.0 0.00 0.00 0.00 80 1020.7
20260507111333 50 323 1.0 3.0 0.00 0.00 0.00 81 1020.8
20260507110831 51 337 0.0 3.0 0.00 0.00 0.00 81 1020.8
20260507110332 51 328 0.0 4.0 0.00 0.00 0.00 81 1020.8
20260507105831 51 339 1.0 4.0 0.00 0.00 0.00 82 1020.8
20260507105331 51 351 0.0 2.0 0.00 0.00 0.00 82 1020.9
20260507104831 51 309 0.0 1.0 0.00 0.00 0.00 82 1020.8
20260507104333 51 309 0.0 1.0 0.00 0.00 0.00 82 1020.8
20260507103837 51 304 0.0 2.0 0.00 0.00 0.00 81 1020.9
20260507103831 51 309 0.0 1.0 0.00 0.00 0.00 82 1020.9
20260507102833 51 335 0.0 2.0 0.00 0.00 0.00 81 1020.9
20260507102331 51 328 1.0 5.0 0.00 0.00 0.00 81 1020.9
20260507101833 51 314 2.0 6.0 0.00 0.00 0.00 81 1021.0
20260507101332 51 321 1.0 6.0 0.00 0.00 0.00 81 1020.9
20260507100832 51 311 1.0 4.0 0.00 0.00 0.00 81 1021.1
20260507100333 51 316 1.0 4.0 0.00 0.00 0.00 81 1021.0
20260507095833 51 9 2.0 4.0 0.00 0.00 0.00 81 1021.1
20260507095337 51 340 1.0 3.0 0.00 0.00 0.00 81 1021.1
20260507095331 51 334 1.0 4.0 0.00 0.00 0.00 81 1021.1
20260507094333 51 321 0.0 3.0 0.00 0.00 0.00 81 1021.1
20260507093831 52 330 0.0 4.0 0.00 0.00 0.00 81 1021.2
20260507093333 52 20 1.0 4.0 0.00 0.00 0.00 81 1021.2
20260507092832 52 322 1.0 5.0 0.00 0.00 0.00 80 1021.2
20260507092337 52 313 0.0 3.0 0.00 0.00 0.00 81 1021.4
20260507092333 52 314 1.0 5.0 0.00 0.00 0.00 81 1021.3
20260507091333 52 307 1.0 4.0 0.00 0.00 0.00 81 1021.4
20260507090832 52 307 1.0 4.0 0.00 0.00 0.00 81 1021.4
20260507090332 52 314 1.0 3.0 0.00 0.00 0.00 81 1021.4
20260507085832 52 328 1.0 5.0 0.00 0.00 0.00 81 1021.3
20260507085332 52 316 0.0 5.0 0.00 0.00 0.00 81 1021.3
20260507084832 52 318 0.0 2.0 0.00 0.00 0.00 82 1021.4
20260507084337 52 330 0.0 3.0 0.00 0.00 0.00 82 1021.3
20260507084331 52 320 0.0 2.0 0.00 0.00 0.00 82 1021.3
20260507083332 52 328 1.0 4.0 0.00 0.00 0.00 82 1021.3
20260507082831 52 338 1.0 4.0 0.00 0.00 0.00 82 1021.4
20260507082332 52 320 1.0 5.0 0.00 0.00 0.00 82 1021.6
20260507081831 52 318 1.0 5.0 0.00 0.00 0.00 82 1021.6
20260507081333 52 5 0.0 4.0 0.00 0.00 0.00 82 1021.4
20260507080832 52 303 0.0 2.0 0.00 0.00 0.00 82 1021.3
20260507080332 52 314 0.0 1.0 0.00 0.00 0.00 83 1021.4
20260507075831 52 323 0.0 2.0 0.00 0.00 0.00 83 1021.4
20260507075333 52 315 0.0 2.0 0.00 0.00 0.00 83 1021.4
20260507074831 52 311 0.0 3.0 0.00 0.00 0.00 83 1021.4
20260507074332 52 316 1.0 3.0 0.00 0.00 0.00 83 1021.4
20260507073832 52 317 1.0 5.0 0.00 0.00 0.00 83 1021.4
20260507073337 52 318 1.0 3.0 0.00 0.00 0.00 83 1021.4
20260507073331 52 358 1.0 5.0 0.00 0.00 0.00 83 1021.4
20260507072951 52 344 1.0 4.0 0.00 0.00 0.00 83 1021.3
20260507071837 52 309 1.0 5.0 0.00 0.00 0.00 83 1021.3
20260507071832 52 8 1.0 5.0 0.00 0.00 0.00 83 1021.3
20260507070833 52 288 1.0 4.0 0.00 0.00 0.00 83 1021.2
20260507070332 52 335 1.0 5.0 0.00 0.00 0.00 83 1021.2
20260507065835 53 356 2.0 7.0 0.00 0.00 0.00 83 1021.2
20260507065830 52 0 1.0 7.0 0.00 0.00 0.00 82 1021.2
20260507064830 53 12 2.0 5.0 0.00 0.00 0.00 82 1021.2
20260507064337 53 340 2.0 11.0 0.00 0.00 0.00 82 1021.3
20260507064332 53 47 2.0 11.0 0.00 0.00 0.00 82 1021.3
20260507063332 53 317 2.0 6.0 0.00 0.00 0.00 82 1021.3
20260507062831 53 20 2.0 7.0 0.00 0.00 0.00 82 1021.3
20260507062328 53 297 1.0 7.0 0.00 0.00 0.00 82 1021.3
20260507061828 53 333 2.0 8.0 0.00 0.00 0.00 82 1021.3
20260507061328 53 29 3.0 8.0 0.00 0.00 0.00 82 1021.3
20260507060828 53 330 3.0 8.0 0.00 0.00 0.00 82 1021.3
20260507060329 53 318 2.0 7.0 0.00 0.00 0.00 82 1021.3
20260507055828 53 319 2.0 7.0 0.00 0.00 0.00 82 1021.3
20260507055329 53 328 2.0 7.0 0.00 0.00 0.00 82 1021.3
20260507054828 53 329 3.0 7.0 0.00 0.00 0.00 82 1021.3
20260507054331 53 40 2.0 6.0 0.00 0.00 0.00 81 1021.3
20260507054327 53 273 2.0 8.0 0.00 0.00 0.00 81 1021.2
20260507053932 53 340 1.0 6.0 0.00 0.00 0.00 81 1021.3
20260507052827 53 340 2.0 8.0 0.00 0.00 0.00 81 1021.2
20260507052325 54 325 2.0 8.0 0.00 0.00 0.00 81 1021.2
20260507051831 54 24 3.0 10.0 0.00 0.00 0.00 80 1021.2
20260507051826 54 300 3.0 8.0 0.00 0.00 0.00 81 1021.2
20260507050827 54 352 1.0 10.0 0.00 0.00 0.00 80 1021.2
20260507050328 54 264 2.0 12.0 0.00 0.00 0.00 80 1021.3
20260507045826 54 1 3.0 12.0 0.00 0.00 0.00 80 1021.3
20260507045331 54 22 3.0 14.0 0.00 0.00 0.00 80 1021.3
20260507045327 54 317 3.0 14.0 0.00 0.00 0.00 80 1021.3
20260507044325 54 42 3.0 11.0 0.00 0.00 0.00 80 1021.3
20260507043830 55 340 4.0 11.0 0.00 0.00 0.00 79 1021.2
20260507043824 54 354 4.0 11.0 0.00 0.00 0.00 79 1021.3
20260507042825 55 51 3.0 11.0 0.00 0.00 0.00 79 1021.1
20260507042324 55 110 3.0 9.0 0.00 0.00 0.00 79 1021.1
20260507041824 55 250 2.0 8.0 0.00 0.00 0.00 79 1021.1
20260507041324 56 44 2.0 7.0 0.00 0.00 0.00 79 1021.0
20260507040825 56 8 3.0 8.0 0.00 0.00 0.00 79 1021.0
20260507040324 56 308 4.0 11.0 0.00 0.00 0.00 79 1021.0
20260507035822 56 11 3.0 11.0 0.00 0.00 0.00 79 1020.9
20260507035323 56 27 2.0 8.0 0.00 0.00 0.00 79 1020.8
20260507034822 56 325 2.0 8.0 0.00 0.00 0.00 79 1020.7
20260507034323 57 57 2.0 6.0 0.00 0.00 0.00 79 1020.7
20260507033821 57 340 2.0 6.0 0.00 0.00 0.00 79 1020.6
20260507033322 57 305 1.0 6.0 0.00 0.00 0.00 79 1020.6
20260507032823 57 318 1.0 6.0 0.00 0.00 0.00 79 1020.5
20260507032322 57 344 2.0 9.0 0.00 0.00 0.00 79 1020.4
20260507031822 57 340 3.0 9.0 0.00 0.00 0.00 79 1020.3
20260507031323 57 349 2.0 8.0 0.00 0.00 0.00 79 1020.3
20260507030820 57 321 1.0 8.0 0.00 0.00 0.00 79 1020.3
20260507030319 57 320 1.0 4.0 0.00 0.00 0.00 79 1020.2
20260507025820 58 290 2.0 6.0 0.00 0.00 0.00 78 1020.1
20260507025325 58 6 2.0 6.0 0.00 0.00 0.00 78 1020.1
20260507025320 58 302 2.0 6.0 0.00 0.00 0.00 78 1020.1
20260507024320 58 337 2.0 7.0 0.00 0.00 0.00 77 1020.0
20260507023820 59 295 2.0 7.0 0.00 0.00 0.00 76 1020.0
20260507023320 59 332 2.0 6.0 0.00 0.00 0.00 76 1019.9
20260507022820 60 337 2.0 8.0 0.00 0.00 0.00 75 1020.0
20260507022320 60 352 2.0 8.0 0.00 0.00 0.00 74 1020.0
20260507021819 61 344 2.0 6.0 0.00 0.00 0.00 73 1020.0
20260507021323 61 354 2.0 8.0 0.00 0.00 0.00 73 1020.0
20260507021319 61 325 2.0 8.0 0.00 0.00 0.00 74 1020.0
20260507020323 61 321 2.0 6.0 0.00 0.00 0.00 73 1020.1
20260507020318 61 335 2.0 6.0 0.00 0.00 0.00 74 1020.1
20260507015318 61 339 3.0 8.0 0.00 0.00 0.00 73 1020.1
20260507014823 62 111 3.0 9.0 0.00 0.00 0.00 73 1020.2
20260507014819 62 342 3.0 9.0 0.00 0.00 0.00 73 1020.1
20260507014442 62 36 3.0 12.0 0.00 0.00 0.00 73 1020.2
20260507013319 62 330 2.0 12.0 0.00 0.00 0.00 72 1020.2
20260507012816 62 10 2.0 7.0 0.00 0.00 0.00 73 1020.1
20260507012322 63 318 3.0 8.0 0.00 0.00 0.00 72 1020.1
20260507012318 62 339 3.0 8.0 0.00 0.00 0.00 73 1020.1
20260507011317 63 37 3.0 8.0 0.00 0.00 0.00 73 1020.1
20260507010822 63 313 5.0 10.0 0.00 0.00 0.00 72 1020.1
20260507010816 63 1 3.0 8.0 0.00 0.00 0.00 72 1020.0
20260507005816 64 314 4.0 10.0 0.00 0.00 0.00 72 1020.1
20260507005322 65 318 3.0 11.0 0.00 0.00 0.00 73 1020.0
20260507005318 64 333 3.0 8.0 0.00 0.00 0.00 72 1020.0
20260507004317 65 1 3.0 11.0 0.00 0.00 0.00 72 1020.0
20260507003814 65 15 3.0 7.0 0.00 0.00 0.00 71 1020.0
20260507003315 65 52 3.0 7.0 0.00 0.00 0.00 71 1020.0
20260507002813 65 347 2.0 7.0 0.00 0.00 0.00 70 1020.0
20260507002314 66 1 1.0 5.0 0.00 0.00 0.00 70 1020.0
20260507001815 66 8 1.0 3.0 0.00 0.00 0.00 70 1020.0
20260507001315 65 332 1.0 4.0 0.00 0.00 0.00 71 1020.0
20260507000819 65 289 0.0 4.0 0.00 0.00 0.00 69 1020.0
20260507000814 65 323 1.0 4.0 0.00 0.00 0.00 69 1020.0
20260506235819 65 276 1.0 4.0 0.00 0.00 0.00 68 1020.0
20260506235813 65 276 1.0 4.0 0.00 0.00 0.00 69 1020.0
20260506234812 65 18 2.0 5.0 0.00 0.00 0.00 68 1019.9
20260506234313 65 346 2.0 5.0 0.00 0.00 0.00 68 1019.9
20260506233812 66 349 2.0 5.0 0.00 0.00 0.00 68 1020.0
20260506233312 66 329 2.0 5.0 0.00 0.00 0.00 68 1020.0
20260506232812 66 354 1.0 3.0 0.00 0.00 0.00 68 1020.0
20260506232312 66 340 0.0 4.0 0.00 0.00 0.00 66 1020.0
20260506231811 66 257 1.0 6.0 0.00 0.00 0.00 67 1020.0
20260506231313 66 282 1.0 6.0 0.00 0.00 0.00 67 1020.1
20260506230809 66 273 0.0 2.0 0.00 0.00 0.00 69 1020.1
20260506230311 66 312 0.0 1.0 0.00 0.00 0.00 69 1020.2
20260506225810 65 319 0.0 3.0 0.00 0.00 0.00 70 1020.3
20260506225310 64 269 1.0 4.0 0.00 0.00 0.00 70 1020.3
20260506224807 64 267 1.0 4.0 0.00 0.00 0.00 73 1020.4
20260506224308 64 280 1.0 5.0 0.00 0.00 0.00 71 1020.4
20260506223809 64 304 1.0 5.0 0.00 0.00 0.00 71 1020.5
20260506223307 64 291 1.0 3.0 0.00 0.00 0.00 71 1020.5
20260506222809 63 323 1.0 4.0 0.00 0.00 0.00 73 1020.6
20260506222309 63 320 1.0 6.0 0.00 0.00 0.00 73 1020.6
20260506221811 63 304 2.0 5.0 0.00 0.00 0.00 73 1020.7
20260506221807 63 1 2.0 6.0 0.00 0.00 0.00 74 1020.6
20260506220807 64 292 1.0 4.0 0.00 0.00 0.00 73 1020.6
20260506220307 64 308 1.0 4.0 0.00 0.00 0.00 72 1020.6
20260506215806 64 248 1.0 3.0 0.00 0.00 0.00 72 1020.5
20260506215307 64 329 0.0 3.0 0.00 0.00 0.00 72 1020.5
20260506214807 64 257 0.0 2.0 0.00 0.00 0.00 74 1020.5
20260506214310 62 288 1.0 4.0 0.00 0.00 0.00 76 1020.6
20260506214305 63 318 0.0 2.0 0.00 0.00 0.00 75 1020.6
20260506213304 62 297 1.0 4.0 0.00 0.00 0.00 75 1020.7
20260506212808 62 260 1.0 6.0 0.00 0.00 0.00 75 1020.9
20260506212802 62 331 1.0 4.0 0.00 0.00 0.00 76 1020.8
20260506211802 63 288 1.0 6.0 0.00 0.00 0.00 73 1021.0
20260506211303 63 265 1.0 6.0 0.00 0.00 0.00 73 1020.9
20260506210803 63 257 1.0 3.0 0.00 0.00 0.00 75 1021.0
20260506210302 62 167 1.0 3.0 0.00 0.00 0.00 75 1021.0
20260506205802 62 288 1.0 3.0 0.00 0.00 0.00 75 1021.0
20260506205305 62 213 2.0 6.0 0.00 0.00 0.00 76 1021.0
20260506204804 62 183 2.0 6.0 0.00 0.00 0.00 76 1021.0
20260506204307 62 271 2.0 5.0 0.00 0.00 0.00 77 1020.9
20260506204303 62 241 1.0 6.0 0.00 0.00 0.00 76 1020.9
20260506203919 61 284 2.0 5.0 0.00 0.00 0.00 78 1020.9
20260506202800 61 248 1.0 4.0 0.00 0.00 0.00 77 1020.9
20260506202301 61 256 1.0 3.0 0.00 0.00 0.00 78 1020.9
20260506201759 60 243 1.0 3.0 0.00 0.00 0.00 79 1021.0
20260506201300 60 298 1.0 5.0 0.00 0.00 0.00 79 1021.0
20260506200801 60 230 2.0 5.0 0.00 0.00 0.00 80 1021.0
20260506200259 60 295 1.0 3.0 0.00 0.00 0.00 79 1021.1
20260506195800 60 297 1.0 4.0 0.00 0.00 0.00 79 1021.2
20260506195300 60 218 1.0 4.0 0.00 0.00 0.00 79 1021.2
20260506194758 60 239 2.0 5.0 0.00 0.00 0.00 79 1021.3
20260506194258 60 273 2.0 6.0 0.00 0.00 0.00 79 1021.2
20260506193802 60 244 1.0 6.0 0.00 0.00 0.00 78 1021.3
20260506193757 61 248 1.0 3.0 0.00 0.00 0.00 79 1021.3
20260506192758 61 258 0.0 3.0 0.00 0.00 0.00 78 1021.3
20260506192256 61 262 1.0 6.0 0.00 0.00 0.00 79 1021.2
20260506191757 60 240 2.0 6.0 0.00 0.00 0.00 79 1021.1
20260506191256 60 240 2.0 6.0 0.00 0.00 0.00 80 1021.1
20260506190754 60 240 1.0 5.0 0.00 0.00 0.00 80 1021.1
20260506190252 60 291 1.0 5.0 0.00 0.00 0.00 81 1021.2
20260506185756 60 243 1.0 5.0 0.00 0.00 0.00 80 1021.2
20260506185751 60 269 1.0 5.0 0.00 0.00 0.00 81 1021.1
20260506184756 58 280 0.0 2.0 0.00 0.00 0.00 83 1021.0
20260506184751 59 263 1.0 4.0 0.00 0.00 0.00 81 1021.1
20260506184249 59 240 1.0 3.0 0.00 0.00 0.00 82 1021.0
20260506183751 58 241 0.0 3.0 0.00 0.00 0.00 83 1021.0
20260506182752 58 231 1.0 3.0 0.00 0.00 0.00 84 1021.1
20260506182747 58 280 0.0 2.0 0.00 0.00 0.00 84 1021.1
20260506181749 57 229 1.0 3.0 0.00 0.00 0.00 84 1021.1
20260506181249 57 254 0.0 2.0 0.00 0.00 0.00 85 1021.1
20260506180749 57 256 1.0 3.0 0.00 0.00 0.00 85 1021.1
20260506180249 57 243 1.0 3.0 0.00 0.00 0.00 85 1021.1
20260506175749 57 271 1.0 3.0 0.00 0.00 0.00 85 1021.1
20260506175249 57 277 0.0 3.0 0.00 0.00 0.00 85 1021.1
20260506174747 57 280 0.0 1.0 0.00 0.00 0.00 84 1021.1
20260506174248 57 264 0.0 1.0 0.00 0.00 0.00 85 1021.0
20260506173749 57 209 0.0 1.0 0.00 0.00 0.00 84 1020.8
20260506173247 57 259 0.0 1.0 0.00 0.00 0.00 84 1020.9
20260506172745 56 250 0.0 1.0 0.00 0.00 0.00 85 1020.8
20260506172245 56 282 0.0 1.0 0.00 0.00 0.00 85 1020.8
20260506171744 56 282 1.0 3.0 0.00 0.00 0.00 85 1020.7
20260506171247 56 282 1.0 3.0 0.00 0.00 0.00 85 1020.8
20260506170749 56 311 0.0 2.0 0.00 0.00 0.00 84 1020.9
20260506170744 56 323 0.0 2.0 0.00 0.00 0.00 84 1020.9